^^
Paulen-Weather Station Historical Data
Daily Summary for January 22, 2020 Units:  Metric    English   Both
Daily Weekly Monthly Yearly Custom
  High: Low: Average:
Temperature: 7 °C 5 °C 6.1 °C
Dew Point: 4 °C 2 °C 2.8 °C
Humidity: 83% 72% 80%
Wind Speed: 21km/h 7km/h 13.3km/h
Wind Gust: 32km/h - -
Wind- - NW
Pressure: 1030.11 hPa 1026.21 hPa -
Precipitation: 0 mm    
Historical Graphs
 
 
Tabular Data for January 22, 2020
Time Temperature Dew Point Pressure Wind Wind Speed Wind Gust Humidity Rainfall Rate (Hourly) solar
00:04 6 °C 2 °C 1026.82 hPa WNW 13 km/h 14 km/h 78% 0 mm 0 W/m2
00:09 6 °C 3 °C 1026.99 hPa NW 14 km/h 16 km/h 78% 0 mm 0 W/m2
00:14 6 °C 3 °C 1026.89 hPa WNW 11 km/h 16 km/h 78% 0 mm 0 W/m2
00:19 6 °C 3 °C 1026.58 hPa WNW 13 km/h 14 km/h 78% 0 mm 0 W/m2
00:24 6 °C 3 °C 1026.48 hPa NW 15 km/h 14 km/h 78% 0 mm 0 W/m2
00:29 6 °C 3 °C 1026.48 hPa NW 17 km/h 19 km/h 79% 0 mm 0 W/m2
00:34 6 °C 3 °C 1026.58 hPa NW 21 km/h 27 km/h 79% 0 mm 0 W/m2
00:39 6 °C 3 °C 1026.65 hPa NNW 18 km/h 24 km/h 79% 0 mm 0 W/m2
00:44 6 °C 3 °C 1026.75 hPa NNW 16 km/h 21 km/h 80% 0 mm 0 W/m2
00:49 6 °C 3 °C 1026.69 hPa NW 13 km/h 19 km/h 80% 0 mm 0 W/m2
00:54 6 °C 3 °C 1026.72 hPa NW 18 km/h 21 km/h 81% 0 mm 0 W/m2
00:59 6 °C 3 °C 1026.62 hPa NW 16 km/h 23 km/h 80% 0 mm 0 W/m2
01:04 6 °C 3 °C 1026.31 hPa NW 16 km/h 19 km/h 80% 0 mm 0 W/m2
01:09 6 °C 3 °C 1026.28 hPa NNW 17 km/h 19 km/h 80% 0 mm 0 W/m2
01:14 6 °C 3 °C 1026.25 hPa NW 17 km/h 24 km/h 80% 0 mm 0 W/m2
01:19 6 °C 4 °C 1026.35 hPa WNW 18 km/h 24 km/h 81% 0 mm 0 W/m2
01:24 7 °C 4 °C 1026.52 hPa N 19 km/h 26 km/h 81% 0 mm 0 W/m2
01:29 6 °C 3 °C 1026.58 hPa NNW 19 km/h 24 km/h 81% 0 mm 0 W/m2
01:34 6 °C 3 °C 1026.52 hPa NW 17 km/h 24 km/h 80% 0 mm 0 W/m2
01:39 6 °C 3 °C 1026.35 hPa NW 16 km/h 19 km/h 80% 0 mm 0 W/m2
01:44 6 °C 3 °C 1026.38 hPa NW 14 km/h 21 km/h 80% 0 mm 0 W/m2
01:49 6 °C 3 °C 1026.48 hPa NNW 16 km/h 19 km/h 80% 0 mm 0 W/m2
01:54 6 °C 3 °C 1026.58 hPa NW 12 km/h 19 km/h 80% 0 mm 0 W/m2
01:59 6 °C 3 °C 1026.65 hPa NW 14 km/h 16 km/h 80% 0 mm 0 W/m2
02:04 6 °C 3 °C 1026.65 hPa WNW 13 km/h 19 km/h 80% 0 mm 0 W/m2
02:09 6 °C 3 °C 1026.45 hPa NNW 17 km/h 19 km/h 80% 0 mm 0 W/m2
02:14 6 °C 3 °C 1026.41 hPa NNW 15 km/h 21 km/h 80% 0 mm 0 W/m2
02:19 6 °C 3 °C 1026.35 hPa NW 14 km/h 16 km/h 80% 0 mm 0 W/m2
02:24 6 °C 3 °C 1026.35 hPa NW 13 km/h 14 km/h 80% 0 mm 0 W/m2
02:29 6 °C 3 °C 1026.41 hPa NW 17 km/h 14 km/h 81% 0 mm 0 W/m2
02:34 6 °C 3 °C 1026.45 hPa WNW 16 km/h 24 km/h 81% 0 mm 0 W/m2
02:39 6 °C 3 °C 1026.52 hPa NNW 14 km/h 19 km/h 81% 0 mm 0 W/m2
02:44 6 °C 3 °C 1026.58 hPa NW 14 km/h 16 km/h 81% 0 mm 0 W/m2
02:49 6 °C 3 °C 1026.62 hPa NW 9 km/h 21 km/h 81% 0 mm 0 W/m2
02:54 6 °C 3 °C 1026.55 hPa NW 10 km/h 16 km/h 81% 0 mm 0 W/m2
02:59 6 °C 3 °C 1026.69 hPa W 7 km/h 10 km/h 82% 0 mm 0 W/m2
03:04 6 °C 3 °C 1026.65 hPa W 7 km/h 10 km/h 82% 0 mm 0 W/m2
03:09 6 °C 3 °C 1026.48 hPa WNW 9 km/h 8 km/h 82% 0 mm 0 W/m2
03:14 6 °C 3 °C 1026.52 hPa WNW 13 km/h 13 km/h 81% 0 mm 0 W/m2
03:19 6 °C 3 °C 1026.45 hPa WNW 13 km/h 14 km/h 81% 0 mm 0 W/m2
03:24 6 °C 3 °C 1026.45 hPa WNW 10 km/h 14 km/h 81% 0 mm 0 W/m2
03:29 6 °C 3 °C 1026.48 hPa WNW 9 km/h 13 km/h 81% 0 mm 0 W/m2
03:34 6 °C 3 °C 1026.58 hPa WNW 9 km/h 14 km/h 82% 0 mm 0 W/m2
03:39 6 °C 3 °C 1026.65 hPa NW 10 km/h 13 km/h 82% 0 mm 0 W/m2
03:44 6 °C 3 °C 1026.69 hPa W 12 km/h 13 km/h 82% 0 mm 0 W/m2
03:49 6 °C 3 °C 1026.62 hPa WNW 10 km/h 13 km/h 82% 0 mm 0 W/m2
03:54 6 °C 3 °C 1026.48 hPa WNW 12 km/h 13 km/h 82% 0 mm 0 W/m2
03:59 6 °C 3 °C 1026.38 hPa NW 11 km/h 16 km/h 82% 0 mm 0 W/m2
04:04 6 °C 3 °C 1026.35 hPa WNW 14 km/h 16 km/h 82% 0 mm 0 W/m2
04:09 6 °C 3 °C 1026.35 hPa NNW 13 km/h 19 km/h 82% 0 mm 0 W/m2
04:14 6 °C 3 °C 1026.38 hPa NW 15 km/h 16 km/h 82% 0 mm 0 W/m2
04:19 6 °C 3 °C 1026.45 hPa WNW 16 km/h 21 km/h 82% 0 mm 0 W/m2
04:24 6 °C 4 °C 1026.55 hPa WNW 10 km/h 19 km/h 82% 0 mm 0 W/m2
04:29 6 °C 4 °C 1026.55 hPa WNW 13 km/h 11 km/h 83% 0 mm 0 W/m2
04:34 6 °C 4 °C 1026.45 hPa NW 16 km/h 19 km/h 83% 0 mm 0 W/m2
04:39 6 °C 3 °C 1026.41 hPa NW 17 km/h 19 km/h 82% 0 mm 0 W/m2
04:44 6 °C 3 °C 1026.38 hPa NW 16 km/h 23 km/h 82% 0 mm 0 W/m2
04:49 6 °C 3 °C 1026.38 hPa WNW 15 km/h 19 km/h 82% 0 mm 0 W/m2
04:54 6 °C 3 °C 1026.38 hPa NNW 14 km/h 21 km/h 82% 0 mm 0 W/m2
04:59 6 °C 3 °C 1026.21 hPa NW 14 km/h 16 km/h 82% 0 mm 0 W/m2
05:04 6 °C 3 °C 1026.25 hPa WNW 13 km/h 16 km/h 82% 0 mm 0 W/m2
05:09 6 °C 3 °C 1026.35 hPa NNW 12 km/h 16 km/h 83% 0 mm 0 W/m2
05:14 6 °C 3 °C 1026.45 hPa NW 9 km/h 13 km/h 83% 0 mm 0 W/m2
05:19 6 °C 3 °C 1026.45 hPa WNW 11 km/h 11 km/h 83% 0 mm 0 W/m2
05:24 6 °C 3 °C 1026.52 hPa NNW 9 km/h 16 km/h 83% 0 mm 0 W/m2
05:29 6 °C 3 °C 1026.69 hPa W 12 km/h 16 km/h 83% 0 mm 0 W/m2
05:34 6 °C 3 °C 1026.82 hPa NW 13 km/h 16 km/h 82% 0 mm 0 W/m2
05:39 6 °C 3 °C 1026.92 hPa NW 8 km/h 19 km/h 82% 0 mm 0 W/m2
05:44 6 °C 3 °C 1026.92 hPa WNW 9 km/h 11 km/h 82% 0 mm 0 W/m2
05:49 6 °C 3 °C 1026.85 hPa WNW 12 km/h 11 km/h 81% 0 mm 0 W/m2
05:54 6 °C 3 °C 1026.82 hPa WNW 11 km/h 16 km/h 81% 0 mm 0 W/m2
05:59 6 °C 3 °C 1026.79 hPa NW 16 km/h 14 km/h 81% 0 mm 0 W/m2
06:04 6 °C 3 °C 1026.72 hPa NW 17 km/h 21 km/h 82% 0 mm 0 W/m2
06:09 6 °C 3 °C 1026.75 hPa NW 17 km/h 19 km/h 82% 0 mm 0 W/m2
06:14 6 °C 3 °C 1026.89 hPa NW 18 km/h 19 km/h 82% 0 mm 0 W/m2
06:19 6 °C 3 °C 1026.85 hPa WNW 12 km/h 19 km/h 82% 0 mm 0 W/m2
06:24 6 °C 3 °C 1026.99 hPa WNW 13 km/h 13 km/h 82% 0 mm 0 W/m2
06:29 6 °C 3 °C 1027.16 hPa SSW 8 km/h 16 km/h 82% 0 mm 0 W/m2
06:34 6 °C 3 °C 1027.23 hPa NW 11 km/h 11 km/h 82% 0 mm 0 W/m2
06:39 6 °C 3 °C 1027.23 hPa WNW 10 km/h 13 km/h 81% 0 mm 0 W/m2
06:44 6 °C 3 °C 1027.36 hPa WNW 11 km/h 16 km/h 81% 0 mm 0 W/m2
06:49 6 °C 3 °C 1027.33 hPa WNW 11 km/h 13 km/h 81% 0 mm 0 W/m2
06:54 6 °C 3 °C 1027.33 hPa NW 15 km/h 14 km/h 82% 0 mm 0 W/m2
06:59 6 °C 3 °C 1027.26 hPa NW 15 km/h 19 km/h 82% 0 mm 0 W/m2
07:04 6 °C 3 °C 1027.19 hPa NNW 19 km/h 19 km/h 81% 0 mm 0 W/m2
07:09 6 °C 3 °C 1027.26 hPa NNW 18 km/h 27 km/h 81% 0 mm 0 W/m2
07:14 6 °C 3 °C 1027.33 hPa NW 13 km/h 26 km/h 81% 0 mm 0 W/m2
07:19 6 °C 3 °C 1027.46 hPa NW 12 km/h 16 km/h 81% 0 mm 0 W/m2
07:24 6 °C 3 °C 1027.6 hPa NNW 16 km/h 14 km/h 81% 0 mm 0 W/m2
07:29 6 °C 3 °C 1027.7 hPa WNW 10 km/h 21 km/h 81% 0 mm 0 W/m2
07:34 6 °C 3 °C 1027.74 hPa NW 14 km/h 13 km/h 81% 0 mm 0 W/m2
07:39 6 °C 3 °C 1027.67 hPa WNW 12 km/h 19 km/h 82% 0 mm 0 W/m2
07:44 6 °C 3 °C 1027.7 hPa NW 14 km/h 16 km/h 82% 0 mm 0 W/m2
07:49 6 °C 3 °C 1027.74 hPa NW 14 km/h 14 km/h 82% 0 mm 0 W/m2
07:54 6 °C 3 °C 1027.77 hPa WNW 15 km/h 23 km/h 81% 0 mm 0 W/m2
07:59 6 °C 3 °C 1027.8 hPa NW 14 km/h 19 km/h 81% 0 mm 0 W/m2
08:04 6 °C 3 °C 1027.77 hPa WNW 8 km/h 14 km/h 80% 0 mm 0 W/m2
08:09 6 °C 3 °C 1027.9 hPa WNW 14 km/h 11 km/h 80% 0 mm 0 W/m2
08:14 6 °C 3 °C 1028.21 hPa WNW 13 km/h 19 km/h 80% 0 mm 0 W/m2
08:19 6 °C 2 °C 1028.28 hPa WNW 12 km/h 14 km/h 80% 0 mm 0 W/m2
08:24 6 °C 2 °C 1028.31 hPa NW 11 km/h 14 km/h 80% 0 mm 0 W/m2
08:29 6 °C 2 °C 1028.34 hPa NW 12 km/h 16 km/h 80% 0 mm 0 W/m2
08:34 5 °C 2 °C 1028.31 hPa NW 12 km/h 13 km/h 80% 0 mm 0 W/m2
08:39 6 °C 2 °C 1028.45 hPa NW 13 km/h 16 km/h 80% 0 mm 5 W/m2
08:44 6 °C 2 °C 1028.48 hPa NW 12 km/h 14 km/h 79% 0 mm 5 W/m2
08:49 6 °C 2 °C 1028.41 hPa NNW 16 km/h 18 km/h 79% 0 mm 7 W/m2
08:54 6 °C 2 °C 1028.58 hPa NW 13 km/h 16 km/h 79% 0 mm 9 W/m2
08:59 6 °C 2 °C 1028.72 hPa NW 14 km/h 19 km/h 78% 0 mm 16 W/m2
09:04 6 °C 2 °C 1028.92 hPa NW 12 km/h 16 km/h 78% 0 mm 21 W/m2
09:09 6 °C 2 °C 1029.06 hPa NW 10 km/h 13 km/h 78% 0 mm 26 W/m2
09:14 6 °C 2 °C 1029.02 hPa NW 11 km/h 14 km/h 78% 0 mm 33 W/m2
09:19 6 °C 2 °C 1029.06 hPa NW 14 km/h 13 km/h 78% 0 mm 39 W/m2
09:24 6 °C 3 °C 1029.16 hPa NW 13 km/h 23 km/h 77% 0 mm 42 W/m2
09:29 6 °C 3 °C 1029.19 hPa NW 11 km/h 16 km/h 77% 0 mm 49 W/m2
09:34 6 °C 2 °C 1029.02 hPa NW 15 km/h 14 km/h 76% 0 mm 54 W/m2
09:39 6 °C 2 °C 1029.09 hPa NW 17 km/h 19 km/h 76% 0 mm 58 W/m2
09:44 6 °C 2 °C 1029.12 hPa NW 14 km/h 21 km/h 76% 0 mm 51 W/m2
09:49 6 °C 2 °C 1029.12 hPa NNW 17 km/h 19 km/h 76% 0 mm 62 W/m2
09:54 6 °C 2 °C 1029.23 hPa NW 14 km/h 32 km/h 76% 0 mm 74 W/m2
09:59 6 °C 3 °C 1029.56 hPa NW 9 km/h 14 km/h 77% 0 mm 81 W/m2
10:04 6 °C 3 °C 1029.67 hPa WNW 10 km/h 11 km/h 77% 0 mm 90 W/m2
10:09 6 °C 3 °C 1029.73 hPa NW 7 km/h 14 km/h 76% 0 mm 93 W/m2
10:14 6 °C 2 °C 1029.63 hPa NW 9 km/h 10 km/h 76% 0 mm 98 W/m2
10:19 6 °C 2 °C 1029.77 hPa NW 14 km/h 14 km/h 75% 0 mm 90 W/m2
10:24 6 °C 2 °C 1029.97 hPa NW 10 km/h 19 km/h 75% 0 mm 88 W/m2
10:29 6 °C 2 °C 1029.97 hPa NNW 13 km/h 14 km/h 75% 0 mm 104 W/m2
10:34 7 °C 2 °C 1029.6 hPa NNW 20 km/h 19 km/h 74% 0 mm 105 W/m2
10:39 7 °C 2 °C 1029.67 hPa NNW 16 km/h 27 km/h 74% 0 mm 104 W/m2
10:44 7 °C 2 °C 1030.04 hPa NNW 15 km/h 16 km/h 73% 0 mm 118 W/m2
10:49 7 °C 2 °C 1030.11 hPa NNW 14 km/h 16 km/h 73% 0 mm 120 W/m2
10:54 7 °C 2 °C 1030.11 hPa NNW 13 km/h 16 km/h 72% 0 mm 123 W/m2
10:59 7 °C 2 °C 1030.11 hPa NNW 13 km/h 16 km/h 72% 0 mm 128 W/m2
11:04 7 °C 2 °C 1030.07 hPa NNW 11 km/h 14 km/h 72% 0 mm 134 W/m2
Compliments of Weather Underground - 2 mb